Погода в Виноградном

Россия / Ставропольский край     44°42′33″N   44°06′30″E
темп.,
°C
ветер,
м/с
пор.,
м/с
влажн.,
%
обл.,
%
осадки,
мм/ч
давл.,
гПа
погр.,
м
16 мая, вс
вс1600:00+17в3655100 0.0 101183
03:00+14всв3458100 0.0 101148
06:00+14в256738 0.0 1010150
09:00+22вюв45495 0.0 1010472
12:00+28вюв67375 0.0 10081015
15:00+30вюв810310 0.0 10061617
18:00+25вюв8163550 0.0 1006581
21:00+20в5134078 0.0 1006357
17 мая, пн
пн1700:00+17в4124579 0.0 1006301
03:00+17в4104681 0.0 1005207
06:00+17в3958100 0.0 1005246
09:00+23вюв45475 0.0 1006548
12:00+28вюв45370 0.0 10051093
15:00+31в672922 0.0 10041634
18:00+26в5944100 0.0 1005210
21:00+19св4554100 0.0 100667
18 мая, вт
вт1800:00+17с2259100 0.0 100524
03:00+18сз8138176 0.1 1007713
06:00+16зсз8158091 0.1 1008621
09:00+19зсз91272100 0.3 1009957
12:00+23сз8957100 0.1 10091307
15:00+24зсз675295 0.1 10091804
18:00+22зсз586151 0.0 1010716
21:00+18зсз2275100 0.0 101227
19 мая, ср
ср1900:00+16зсз2284100 0.0 101121
03:00+15з22875 0.0 101111
06:00+17ссз117997 0.0 101162
09:00+21зсз4462100 0.1 1012855
12:00+17сз91183100 2.1 1015633
15:00+21сз77606 2.2 10151093
18:00+19сз3666100 0.0 1016297
21:00+17з3569100 0.0 1017122
20 мая, чт
чт2000:00+16сз3867100 0.0 1018307
03:00+14сз38711 0.0 1019238
06:00+13с23740 0.0 1020117
09:00+19вюв21490 0.0 1020709
12:00+23юв343961 0.0 10181372
15:00+25вюв4438100 0.0 10171624
18:00+23вюв35495 0.0 1017163
21:00+19в33520 0.0 101722